| time (UTC) | temp F | wind direction | speed knots | gust knots | rain 1hr in | rain 24hr in | rain mn in | humidity % | barometer mb |
| 20260507223700 | 61 | 269 | 0.9 | 7.0 | 0.00 | 0.06 | 0.00 | 32 | 1005.2 |
| 20260507223456 | 61 | 171 | 1.7 | 7.0 | 0.00 | 0.06 | 0.00 | 32 | 1005.2 |
| 20260507223252 | 61 | 302 | 1.7 | 7.0 | 0.00 | 0.08 | 0.00 | 31 | 1005.2 |
| 20260507223049 | 61 | 5 | 1.7 | 7.0 | 0.00 | 0.08 | 0.00 | 32 | 1005.1 |
| 20260507222839 | 61 | 326 | 1.7 | 7.8 | 0.00 | 0.08 | 0.00 | 31 | 1005.1 |
| 20260507222633 | 61 | 340 | 1.7 | 7.8 | 0.00 | 0.08 | 0.00 | 31 | 1005.1 |
| 20260507222428 | 62 | 237 | 0.9 | 7.8 | 0.00 | 0.08 | 0.00 | 32 | 1005.0 |
| 20260507222110 | 62 | 14 | 0.9 | 7.8 | 0.00 | 0.08 | 0.00 | 31 | 1005.0 |
| 20260507221906 | 62 | 295 | 1.7 | 7.8 | 0.00 | 0.08 | 0.00 | 31 | 1005.0 |
| 20260507221701 | 62 | 310 | 1.7 | 7.8 | 0.00 | 0.08 | 0.00 | 31 | 1005.0 |
| 20260507221337 | 63 | 55 | 1.7 | 7.8 | 0.00 | 0.09 | 0.00 | 30 | 1004.9 |
| 20260507221136 | 63 | 200 | 1.7 | 7.8 | 0.00 | 0.09 | 0.00 | 30 | 1004.9 |
| 20260507220937 | 63 | 232 | 1.7 | 7.0 | 0.00 | 0.09 | 0.00 | 32 | 1004.9 |
| 20260507220727 | 63 | 346 | 1.7 | 7.0 | 0.00 | 0.09 | 0.00 | 29 | 1004.8 |
| 20260507220407 | 63 | 355 | 1.7 | 7.0 | 0.00 | 0.09 | 0.00 | 29 | 1004.7 |
| 20260507220204 | 64 | 299 | 1.7 | 7.0 | 0.00 | 0.09 | 0.00 | 29 | 1004.7 |
| 20260507215956 | 64 | 340 | 2.6 | 8.7 | 0.00 | 0.09 | 0.00 | 28 | 1004.8 |
| 20260507215631 | 64 | 165 | 1.7 | 8.7 | 0.00 | 0.09 | 0.00 | 29 | 1004.8 |
| 20260507215313 | 64 | 300 | 1.7 | 8.7 | 0.00 | 0.09 | 0.00 | 28 | 1004.8 |
| 20260507215112 | 64 | 305 | 2.6 | 8.7 | 0.00 | 0.09 | 0.00 | 28 | 1004.7 |
| 20260507214913 | 64 | 340 | 1.7 | 8.7 | 0.00 | 0.09 | 0.00 | 28 | 1004.8 |
| 20260507214707 | 65 | 345 | 1.7 | 8.7 | 0.00 | 0.09 | 0.00 | 27 | 1004.7 |
| 20260507214501 | 65 | 175 | 1.7 | 8.7 | 0.00 | 0.09 | 0.00 | 29 | 1004.7 |
| 20260507214259 | 64 | 41 | 1.7 | 8.7 | 0.00 | 0.09 | 0.00 | 28 | 1004.6 |
| 20260507213944 | 64 | 313 | 1.7 | 6.1 | 0.00 | 0.10 | 0.00 | 29 | 1004.6 |
| 20260507213742 | 65 | 351 | 1.7 | 5.2 | 0.00 | 0.10 | 0.00 | 28 | 1004.7 |
| 20260507213541 | 65 | 277 | 1.7 | 8.7 | 0.00 | 0.10 | 0.00 | 29 | 1004.7 |
| 20260507213338 | 65 | 291 | 1.7 | 8.7 | 0.00 | 0.10 | 0.00 | 32 | 1004.7 |
| 20260507213136 | 65 | 319 | 1.7 | 8.7 | 0.00 | 0.10 | 0.00 | 29 | 1004.7 |
| 20260507212937 | 65 | 259 | 0.9 | 8.7 | 0.00 | 0.10 | 0.00 | 28 | 1004.7 |
| 20260507212735 | 66 | 257 | 0.9 | 8.7 | 0.00 | 0.11 | 0.00 | 30 | 1004.7 |
| 20260507212530 | 66 | 321 | 1.7 | 8.7 | 0.00 | 0.11 | 0.00 | 28 | 1004.7 |
| 20260507212331 | 65 | 176 | 1.7 | 8.7 | 0.00 | 0.11 | 0.00 | 30 | 1004.7 |
| 20260507212132 | 65 | 286 | 1.7 | 8.7 | 0.00 | 0.11 | 0.00 | 28 | 1004.7 |
| 20260507211811 | 66 | 306 | 1.7 | 8.7 | 0.00 | 0.11 | 0.00 | 28 | 1004.7 |
| 20260507211449 | 66 | 257 | 1.7 | 5.2 | 0.00 | 0.11 | 0.00 | 29 | 1004.7 |
| 20260507211240 | 66 | 41 | 1.7 | 6.1 | 0.00 | 0.12 | 0.00 | 29 | 1004.7 |
| 20260507211031 | 66 | 251 | 1.7 | 6.1 | 0.00 | 0.12 | 0.00 | 28 | 1004.7 |
| 20260507210821 | 66 | 267 | 1.7 | 6.1 | 0.00 | 0.12 | 0.00 | 31 | 1004.7 |
| 20260507210456 | 66 | 234 | 1.7 | 6.1 | 0.00 | 0.13 | 0.00 | 29 | 1004.7 |
| 20260507210255 | 66 | 312 | 1.7 | 9.6 | 0.00 | 0.13 | 0.00 | 28 | 1004.7 |
| 20260507210053 | 66 | 321 | 1.7 | 9.6 | 0.00 | 0.13 | 0.00 | 28 | 1004.7 |
| 20260507205847 | 66 | 277 | 1.7 | 9.6 | 0.00 | 0.13 | 0.00 | 28 | 1004.6 |
| 20260507205533 | 66 | 195 | 1.7 | 9.6 | 0.00 | 0.13 | 0.00 | 29 | 1004.7 |
| 20260507205333 | 66 | 9 | 1.7 | 11.3 | 0.00 | 0.13 | 0.00 | 28 | 1004.7 |
| 20260507205126 | 65 | 78 | 1.7 | 11.3 | 0.00 | 0.13 | 0.00 | 30 | 1004.7 |
| 20260507204916 | 65 | 263 | 1.7 | 11.3 | 0.00 | 0.14 | 0.00 | 29 | 1004.7 |
| 20260507204709 | 66 | 211 | 0.9 | 11.3 | 0.00 | 0.14 | 0.00 | 29 | 1004.7 |
| 20260507204459 | 65 | 319 | 1.7 | 11.3 | 0.00 | 0.14 | 0.00 | 29 | 1004.6 |
| 20260507204257 | 65 | 257 | 2.6 | 11.3 | 0.00 | 0.14 | 0.00 | 31 | 1004.7 |
| 20260507204050 | 65 | 262 | 2.6 | 11.3 | 0.00 | 0.14 | 0.00 | 28 | 1004.7 |
| 20260507203844 | 65 | 267 | 2.6 | 11.3 | 0.00 | 0.15 | 0.00 | 29 | 1004.7 |
| 20260507203638 | 65 | 243 | 3.5 | 11.3 | 0.00 | 0.15 | 0.00 | 31 | 1004.7 |
| 20260507203436 | 66 | 49 | 2.6 | 11.3 | 0.00 | 0.15 | 0.00 | 31 | 1004.7 |
| 20260507203225 | 66 | 261 | 2.6 | 9.6 | 0.00 | 0.15 | 0.00 | 30 | 1004.5 |
| 20260507203023 | 66 | 261 | 2.6 | 9.6 | 0.00 | 0.16 | 0.00 | 31 | 1004.6 |
| 20260507202815 | 67 | 264 | 1.7 | 9.6 | 0.00 | 0.16 | 0.00 | 30 | 1004.6 |
| 20260507202609 | 67 | 309 | 0.9 | 9.6 | 0.00 | 0.16 | 0.00 | 28 | 1004.5 |
| 20260507202406 | 67 | 265 | 0.9 | 7.8 | 0.00 | 0.17 | 0.00 | 30 | 1004.5 |
| 20260507202201 | 66 | 311 | 0.9 | 7.8 | 0.00 | 0.17 | 0.00 | 28 | 1004.6 |
| 20260507202002 | 66 | 254 | 1.7 | 7.8 | 0.00 | 0.17 | 0.00 | 30 | 1004.5 |
| 20260507201759 | 66 | 238 | 1.7 | 9.6 | 0.00 | 0.18 | 0.00 | 29 | 1004.5 |
| 20260507201559 | 66 | 130 | 2.6 | 9.6 | 0.00 | 0.19 | 0.00 | 29 | 1004.6 |
| 20260507201234 | 66 | 355 | 3.5 | 9.6 | 0.00 | 0.19 | 0.00 | 30 | 1004.6 |
| 20260507201024 | 66 | 306 | 3.5 | 9.6 | 0.00 | 0.19 | 0.00 | 30 | 1004.6 |
| 20260507200702 | 67 | 290 | 2.6 | 9.6 | 0.00 | 0.19 | 0.00 | 28 | 1004.6 |
| 20260507200458 | 67 | 355 | 2.6 | 9.6 | 0.00 | 0.19 | 0.00 | 28 | 1004.6 |
| 20260507200252 | 67 | 16 | 1.7 | 9.6 | 0.00 | 0.19 | 0.00 | 30 | 1004.7 |
| 20260507200044 | 66 | 346 | 1.7 | 9.6 | 0.00 | 0.19 | 0.00 | 30 | 1004.7 |
| 20260507195836 | 66 | 11 | 1.7 | 9.6 | 0.00 | 0.20 | 0.00 | 29 | 1004.7 |
| 20260507195633 | 66 | 304 | 1.7 | 7.8 | 0.00 | 0.20 | 0.00 | 29 | 1004.8 |
| 20260507195429 | 66 | 355 | 1.7 | 7.8 | 0.00 | 0.20 | 0.00 | 31 | 1004.6 |
| 20260507195220 | 65 | 178 | 2.6 | 7.8 | 0.00 | 0.20 | 0.00 | 30 | 1004.7 |
| 20260507194902 | 65 | 295 | 2.6 | 7.8 | 0.00 | 0.21 | 0.00 | 31 | 1004.7 |
| 20260507194655 | 65 | 339 | 2.6 | 7.8 | 0.00 | 0.21 | 0.00 | 32 | 1004.7 |
| 20260507194454 | 65 | 82 | 2.6 | 7.8 | 0.00 | 0.21 | 0.00 | 30 | 1004.8 |
| 20260507194247 | 65 | 292 | 2.6 | 7.8 | 0.00 | 0.21 | 0.00 | 30 | 1004.8 |
| 20260507194039 | 65 | 254 | 2.6 | 9.6 | 0.00 | 0.21 | 0.00 | 31 | 1004.7 |
| 20260507193838 | 65 | 329 | 2.6 | 9.6 | 0.00 | 0.21 | 0.00 | 30 | 1004.7 |
| 20260507193638 | 65 | 223 | 2.6 | 9.6 | 0.00 | 0.22 | 0.00 | 32 | 1004.8 |
| 20260507193320 | 65 | 257 | 2.6 | 9.6 | 0.00 | 0.22 | 0.00 | 33 | 1004.8 |
| 20260507193116 | 65 | 229 | 1.7 | 9.6 | 0.00 | 0.22 | 0.00 | 30 | 1004.9 |
| 20260507192756 | 66 | 301 | 1.7 | 9.6 | 0.00 | 0.23 | 0.00 | 30 | 1005.0 |
| 20260507192556 | 65 | 28 | 1.7 | 9.6 | 0.00 | 0.23 | 0.00 | 31 | 1005.0 |
| 20260507192357 | 65 | 42 | 2.6 | 9.6 | 0.00 | 0.23 | 0.00 | 34 | 1005.0 |
| 20260507192151 | 64 | 198 | 2.6 | 9.6 | 0.00 | 0.23 | 0.00 | 31 | 1004.9 |
| 20260507191951 | 64 | 226 | 2.6 | 9.6 | 0.00 | 0.23 | 0.00 | 35 | 1004.9 |
| 20260507191742 | 65 | 257 | 3.5 | 9.6 | 0.00 | 0.23 | 0.00 | 30 | 1005.0 |
| 20260507191539 | 65 | 235 | 3.5 | 9.6 | 0.00 | 0.23 | 0.00 | 32 | 1005.1 |
| 20260507191333 | 65 | 242 | 2.6 | 9.6 | 0.00 | 0.24 | 0.00 | 34 | 1004.9 |
| 20260507191128 | 65 | 276 | 2.6 | 12.2 | 0.00 | 0.24 | 0.00 | 30 | 1005.1 |
| 20260507190808 | 65 | 250 | 2.6 | 12.2 | 0.00 | 0.24 | 0.00 | 31 | 1005.1 |
| 20260507190606 | 65 | 209 | 2.6 | 12.2 | 0.00 | 0.24 | 0.00 | 34 | 1005.0 |
| 20260507190252 | 65 | 246 | 3.5 | 12.2 | 0.00 | 0.24 | 0.00 | 29 | 1005.0 |
| 20260507190046 | 65 | 244 | 3.5 | 12.2 | 0.00 | 0.24 | 0.00 | 33 | 1005.2 |
| 20260507185836 | 65 | 248 | 2.6 | 12.2 | 0.00 | 0.24 | 0.00 | 33 | 1005.1 |
| 20260507185626 | 66 | 262 | 2.6 | 12.2 | 0.00 | 0.24 | 0.00 | 29 | 1005.1 |
| 20260507185416 | 66 | 303 | 2.6 | 12.2 | 0.00 | 0.24 | 0.00 | 31 | 1005.3 |
| 20260507185215 | 66 | 214 | 1.7 | 12.2 | 0.00 | 0.24 | 0.00 | 33 | 1005.2 |
| 20260507185006 | 66 | 5 | 1.7 | 9.6 | 0.00 | 0.24 | 0.00 | 31 | 1005.2 |
| 20260507184800 | 65 | 240 | 1.7 | 9.6 | 0.00 | 0.24 | 0.00 | 31 | 1005.2 |
| 20260507184554 | 65 | 301 | 1.7 | 9.6 | 0.00 | 0.24 | 0.00 | 33 | 1005.2 |
| 20260507184349 | 65 | 318 | 2.6 | 9.6 | 0.00 | 0.24 | 0.00 | 31 | 1005.2 |
| 20260507184146 | 65 | 275 | 2.6 | 9.6 | 0.00 | 0.24 | 0.00 | 31 | 1005.1 |
| 20260507183942 | 65 | 336 | 2.6 | 8.7 | 0.00 | 0.24 | 0.00 | 31 | 1005.2 |
| 20260507183739 | 66 | 223 | 2.6 | 8.7 | 0.00 | 0.24 | 0.00 | 31 | 1005.3 |
| 20260507183417 | 66 | 9 | 2.6 | 8.7 | 0.00 | 0.24 | 0.00 | 30 | 1005.3 |
| 20260507183051 | 66 | 311 | 2.6 | 7.8 | 0.00 | 0.24 | 0.00 | 31 | 1005.2 |
| 20260507182847 | 66 | 293 | 2.6 | 15.6 | 0.00 | 0.24 | 0.00 | 33 | 1005.2 |
| 20260507182647 | 66 | 261 | 2.6 | 15.6 | 0.00 | 0.24 | 0.00 | 34 | 1005.2 |
| 20260507182437 | 66 | 289 | 2.6 | 15.6 | 0.00 | 0.24 | 0.00 | 32 | 1005.3 |
| 20260507182228 | 65 | 237 | 2.6 | 15.6 | 0.00 | 0.24 | 0.00 | 32 | 1005.2 |
| 20260507182018 | 65 | 198 | 2.6 | 15.6 | 0.00 | 0.24 | 0.00 | 34 | 1005.2 |
| 20260507181817 | 65 | 218 | 3.5 | 15.6 | 0.00 | 0.24 | 0.00 | 34 | 1005.2 |
| 20260507181611 | 65 | 306 | 2.6 | 15.6 | 0.00 | 0.24 | 0.00 | 31 | 1005.3 |
| 20260507181246 | 65 | 321 | 3.5 | 15.6 | 0.00 | 0.24 | 0.00 | 30 | 1005.3 |
| 20260507181035 | 65 | 5 | 2.6 | 15.6 | 0.00 | 0.24 | 0.00 | 31 | 1005.3 |
| 20260507180714 | 65 | 340 | 1.7 | 12.2 | 0.00 | 0.24 | 0.00 | 30 | 1005.4 |
| 20260507180508 | 65 | 136 | 2.6 | 12.2 | 0.00 | 0.24 | 0.00 | 34 | 1005.4 |
| 20260507180300 | 65 | 30 | 2.6 | 12.2 | 0.00 | 0.24 | 0.00 | 33 | 1005.4 |
| 20260507180053 | 65 | 178 | 2.6 | 12.2 | 0.00 | 0.24 | 0.00 | 32 | 1005.4 |
| 20260507175847 | 64 | 215 | 3.5 | 12.2 | 0.00 | 0.24 | 0.00 | 32 | 1005.4 |
| 20260507175647 | 64 | 344 | 3.5 | 12.2 | 0.00 | 0.24 | 0.00 | 34 | 1005.3 |
| 20260507175439 | 64 | 271 | 3.5 | 12.2 | 0.00 | 0.24 | 0.00 | 33 | 1005.4 |
| 20260507175234 | 64 | 22 | 3.5 | 12.2 | 0.00 | 0.24 | 0.00 | 36 | 1005.4 |
| 20260507175032 | 64 | 207 | 2.6 | 8.7 | 0.00 | 0.24 | 0.00 | 35 | 1005.3 |
| 20260507174823 | 65 | 287 | 2.6 | 8.7 | 0.00 | 0.24 | 0.00 | 34 | 1005.3 |
| 20260507174508 | 64 | 355 | 2.6 | 8.7 | 0.00 | 0.24 | 0.00 | 35 | 1005.3 |
| 20260507174308 | 65 | 257 | 2.6 | 8.7 | 0.00 | 0.24 | 0.00 | 33 | 1005.2 |
| 20260507173945 | 65 | 246 | 2.6 | 8.7 | 0.00 | 0.24 | 0.00 | 33 | 1005.2 |
| 20260507173738 | 65 | 228 | 2.6 | 10.4 | 0.00 | 0.24 | 0.00 | 35 | 1005.2 |
| 20260507173528 | 65 | 173 | 2.6 | 10.4 | 0.00 | 0.24 | 0.00 | 35 | 1005.3 |
| 20260507173328 | 65 | 252 | 1.7 | 10.4 | 0.00 | 0.24 | 0.00 | 35 | 1005.3 |
| 20260507173128 | 64 | 305 | 2.6 | 10.4 | 0.00 | 0.24 | 0.00 | 38 | 1005.3 |
| 20260507172926 | 64 | 228 | 3.5 | 10.4 | 0.00 | 0.24 | 0.00 | 35 | 1005.4 |
| 20260507172720 | 64 | 234 | 3.5 | 10.4 | 0.00 | 0.24 | 0.00 | 35 | 1005.3 |
| 20260507172516 | 64 | 198 | 3.5 | 10.4 | 0.00 | 0.24 | 0.00 | 37 | 1005.3 |
| 20260507172308 | 64 | 31 | 2.6 | 10.4 | 0.00 | 0.24 | 0.00 | 33 | 1005.5 |
| 20260507171951 | 64 | 292 | 2.6 | 10.4 | 0.00 | 0.24 | 0.00 | 36 | 1005.6 |
| 20260507171744 | 64 | 245 | 2.6 | 8.7 | 0.00 | 0.24 | 0.00 | 32 | 1005.4 |
| 20260507171541 | 64 | 196 | 2.6 | 8.7 | 0.00 | 0.24 | 0.00 | 36 | 1005.5 |
| 20260507171217 | 64 | 178 | 2.6 | 10.4 | 0.00 | 0.24 | 0.00 | 35 | 1005.5 |
| 20260507171018 | 64 | 302 | 2.6 | 10.4 | 0.00 | 0.24 | 0.00 | 33 | 1005.5 |
| 20260507170807 | 64 | 311 | 2.6 | 10.4 | 0.00 | 0.24 | 0.00 | 36 | 1005.6 |
| 20260507170603 | 64 | 295 | 2.6 | 10.4 | 0.00 | 0.24 | 0.00 | 35 | 1005.6 |
| 20260507170404 | 64 | 267 | 2.6 | 10.4 | 0.00 | 0.24 | 0.00 | 39 | 1005.6 |
| 20260507170156 | 63 | 286 | 2.6 | 10.4 | 0.00 | 0.24 | 0.00 | 39 | 1005.6 |
| 20260507165840 | 63 | 229 | 2.6 | 10.4 | 0.00 | 0.24 | 0.00 | 47 | 1005.7 |
| 20260507165634 | 62 | 279 | 2.6 | 10.4 | 0.00 | 0.24 | 0.00 | 42 | 1005.8 |
| 20260507165427 | 62 | 321 | 2.6 | 10.4 | 0.00 | 0.24 | 0.00 | 44 | 1005.8 |
| 20260507165222 | 62 | 188 | 2.6 | 7.8 | 0.00 | 0.24 | 0.00 | 45 | 1005.7 |
| 20260507165018 | 62 | 309 | 2.6 | 7.8 | 0.00 | 0.24 | 0.00 | 45 | 1005.8 |
| 20260507164808 | 62 | 226 | 2.6 | 7.8 | 0.00 | 0.24 | 0.00 | 48 | 1005.8 |
| 20260507164600 | 62 | 313 | 2.6 | 7.8 | 0.00 | 0.24 | 0.00 | 45 | 1005.7 |
| 20260507164353 | 62 | 265 | 2.6 | 7.8 | 0.00 | 0.24 | 0.00 | 45 | 1005.7 |
| 20260507164145 | 62 | 76 | 1.7 | 6.1 | 0.00 | 0.24 | 0.00 | 50 | 1005.7 |
| 20260507163940 | 61 | 5 | 1.7 | 11.3 | 0.00 | 0.24 | 0.00 | 50 | 1005.8 |
| 20260507163616 | 60 | 202 | 1.7 | 11.3 | 0.00 | 0.24 | 0.00 | 52 | 1006.0 |
| 20260507163253 | 61 | 204 | 1.7 | 11.3 | 0.00 | 0.24 | 0.00 | 51 | 1006.0 |
| 20260507163054 | 61 | 174 | 1.7 | 11.3 | 0.00 | 0.24 | 0.00 | 51 | 1006.0 |
| 20260507162854 | 61 | 337 | 1.7 | 11.3 | 0.00 | 0.24 | 0.00 | 51 | 1006.0 |
| 20260507162646 | 61 | 267 | 1.7 | 11.3 | 0.00 | 0.24 | 0.00 | 52 | 1005.9 |
| 20260507162442 | 61 | 273 | 1.7 | 11.3 | 0.00 | 0.24 | 0.00 | 52 | 1005.9 |
| 20260507162120 | 61 | 274 | 2.6 | 11.3 | 0.00 | 0.24 | 0.00 | 51 | 1006.0 |
| 20260507161911 | 61 | 302 | 2.6 | 11.3 | 0.00 | 0.24 | 0.00 | 54 | 1006.0 |
| 20260507161701 | 61 | 152 | 1.7 | 7.8 | 0.00 | 0.24 | 0.00 | 52 | 1006.0 |
| 20260507161458 | 61 | 103 | 1.7 | 7.8 | 0.00 | 0.24 | 0.00 | 51 | 1006.0 |
| 20260507161251 | 61 | 305 | 1.7 | 7.8 | 0.00 | 0.24 | 0.00 | 51 | 1006.0 |
| 20260507161042 | 61 | 227 | 1.7 | 7.8 | 0.00 | 0.24 | 0.00 | 51 | 1006.0 |
| 20260507160839 | 61 | 257 | 1.7 | 6.1 | 0.00 | 0.24 | 0.00 | 51 | 1006.2 |
| 20260507160517 | 61 | 236 | 1.7 | 6.1 | 0.00 | 0.24 | 0.00 | 53 | 1006.1 |
| 20260507160316 | 61 | 196 | 1.7 | 6.1 | 0.00 | 0.24 | 0.00 | 54 | 1006.1 |
| 20260507160113 | 61 | 269 | 1.7 | 6.1 | 0.00 | 0.24 | 0.00 | 51 | 1006.2 |
| 20260507155912 | 61 | 212 | 1.7 | 7.0 | 0.00 | 0.24 | 0.00 | 50 | 1006.1 |
| 20260507155707 | 61 | 321 | 1.7 | 7.0 | 0.00 | 0.24 | 0.00 | 50 | 1006.2 |
| 20260507155505 | 61 | 296 | 1.7 | 7.0 | 0.00 | 0.24 | 0.00 | 51 | 1006.2 |
| 20260507155305 | 61 | 298 | 1.7 | 7.0 | 0.00 | 0.24 | 0.00 | 50 | 1006.3 |
| 20260507154940 | 61 | 45 | 2.6 | 9.6 | 0.00 | 0.24 | 0.00 | 51 | 1006.4 |
| 20260507154617 | 61 | 346 | 2.6 | 9.6 | 0.00 | 0.24 | 0.00 | 51 | 1006.4 |
| 20260507154413 | 60 | 209 | 2.6 | 9.6 | 0.00 | 0.24 | 0.00 | 53 | 1006.5 |
| 20260507154203 | 60 | 239 | 2.6 | 9.6 | 0.00 | 0.24 | 0.00 | 52 | 1006.5 |
| 20260507153959 | 60 | 228 | 2.6 | 9.6 | 0.00 | 0.24 | 0.00 | 52 | 1006.5 |
| 20260507153750 | 60 | 265 | 2.6 | 9.6 | 0.00 | 0.24 | 0.00 | 52 | 1006.5 |
| 20260507153543 | 60 | 274 | 2.6 | 9.6 | 0.00 | 0.24 | 0.00 | 55 | 1006.6 |
| 20260507153339 | 60 | 294 | 2.6 | 9.6 | 0.00 | 0.24 | 0.00 | 51 | 1006.6 |
| 20260507153018 | 60 | 11 | 1.7 | 6.1 | 0.00 | 0.24 | 0.00 | 52 | 1006.6 |
| 20260507152652 | 60 | 207 | 0.9 | 10.4 | 0.00 | 0.24 | 0.00 | 53 | 1006.6 |
| 20260507152334 | 60 | 257 | 0.9 | 10.4 | 0.00 | 0.24 | 0.00 | 52 | 1006.7 |
| 20260507152134 | 60 | 238 | 0.9 | 10.4 | 0.00 | 0.24 | 0.00 | 50 | 1006.7 |
| 20260507151924 | 60 | 215 | 0.9 | 10.4 | 0.00 | 0.24 | 0.00 | 52 | 1006.7 |
| 20260507151723 | 60 | 267 | 1.7 | 10.4 | 0.00 | 0.24 | 0.00 | 56 | 1006.7 |
| 20260507151357 | 60 | 175 | 2.6 | 10.4 | 0.00 | 0.24 | 0.00 | 52 | 1006.8 |
| 20260507151148 | 61 | 241 | 2.6 | 10.4 | 0.00 | 0.24 | 0.00 | 53 | 1006.8 |
| 20260507150949 | 61 | 175 | 2.6 | 10.4 | 0.00 | 0.24 | 0.00 | 48 | 1006.9 |
| 20260507150739 | 61 | 30 | 2.6 | 9.6 | 0.00 | 0.24 | 0.00 | 51 | 1006.9 |
| 20260507150538 | 61 | 303 | 2.6 | 9.6 | 0.00 | 0.24 | 0.00 | 52 | 1006.9 |
| 20260507150338 | 61 | 13 | 3.5 | 9.6 | 0.00 | 0.24 | 0.00 | 50 | 1006.9 |
| 20260507150130 | 61 | 280 | 3.5 | 8.7 | 0.00 | 0.24 | 0.00 | 51 | 1006.8 |
| 20260507145925 | 61 | 292 | 3.5 | 8.7 | 0.00 | 0.24 | 0.00 | 54 | 1006.9 |
| 20260507145724 | 61 | 263 | 3.5 | 8.7 | 0.00 | 0.24 | 0.00 | 51 | 1006.9 |
| 20260507145522 | 61 | 254 | 3.5 | 8.7 | 0.00 | 0.24 | 0.00 | 51 | 1007.0 |
| 20260507145320 | 61 | 300 | 2.6 | 8.7 | 0.00 | 0.24 | 0.00 | 50 | 1007.0 |
| 20260507145117 | 61 | 235 | 2.6 | 8.7 | 0.00 | 0.24 | 0.00 | 50 | 1007.0 |
| 20260507144914 | 61 | 233 | 1.7 | 7.8 | 0.00 | 0.24 | 0.00 | 52 | 1006.9 |
| 20260507144710 | 61 | 216 | 2.6 | 7.8 | 0.00 | 0.24 | 0.00 | 55 | 1006.9 |
| 20260507144347 | 61 | 287 | 2.6 | 7.8 | 0.00 | 0.24 | 0.00 | 51 | 1006.8 |
| 20260507144137 | 60 | 25 | 3.5 | 7.8 | 0.00 | 0.24 | 0.00 | 55 | 1006.9 |
| 20260507143815 | 60 | 205 | 2.6 | 7.8 | 0.00 | 0.24 | 0.00 | 55 | 1006.8 |
| 20260507143609 | 60 | 254 | 2.6 | 7.8 | 0.00 | 0.24 | 0.00 | 54 | 1006.9 |
| 20260507143401 | 60 | 227 | 1.7 | 7.8 | 0.00 | 0.24 | 0.00 | 52 | 1006.8 |
| 20260507143202 | 60 | 328 | 1.7 | 7.8 | 0.00 | 0.24 | 0.00 | 50 | 1006.8 |
| 20260507142952 | 60 | 227 | 1.7 | 7.8 | 0.00 | 0.24 | 0.00 | 55 | 1006.7 |
| 20260507142742 | 60 | 240 | 1.7 | 7.8 | 0.00 | 0.24 | 0.00 | 55 | 1006.8 |
| 20260507142426 | 60 | 221 | 1.7 | 7.8 | 0.00 | 0.24 | 0.00 | 52 | 1006.8 |
| 20260507142215 | 60 | 239 | 2.6 | 7.8 | 0.00 | 0.24 | 0.00 | 52 | 1006.8 |
| 20260507142005 | 61 | 258 | 1.7 | 7.8 | 0.00 | 0.24 | 0.00 | 54 | 1006.7 |
| 20260507141800 | 61 | 275 | 1.7 | 5.2 | 0.00 | 0.24 | 0.00 | 53 | 1006.6 |
| 20260507141436 | 61 | 261 | 1.7 | 5.2 | 0.00 | 0.24 | 0.00 | 52 | 1006.7 |
| 20260507141233 | 61 | 307 | 1.7 | 5.2 | 0.00 | 0.24 | 0.00 | 52 | 1006.7 |
| 20260507141027 | 61 | 60 | 1.7 | 5.2 | 0.00 | 0.24 | 0.00 | 53 | 1006.7 |
| 20260507140823 | 60 | 47 | 1.7 | 5.2 | 0.00 | 0.24 | 0.00 | 54 | 1006.7 |
| 20260507140613 | 60 | 14 | 1.7 | 5.2 | 0.00 | 0.24 | 0.00 | 50 | 1006.7 |
| 20260507140403 | 60 | 209 | 0.9 | 7.8 | 0.00 | 0.24 | 0.00 | 51 | 1006.7 |
| 20260507140157 | 60 | 296 | 0.9 | 7.8 | 0.00 | 0.24 | 0.00 | 52 | 1006.8 |
| 20260507135949 | 60 | 355 | 0.9 | 7.8 | 0.00 | 0.24 | 0.00 | 54 | 1006.8 |
| 20260507135741 | 60 | 50 | 0.9 | 7.8 | 0.00 | 0.24 | 0.00 | 53 | 1006.8 |
| 20260507135541 | 60 | 262 | 0.9 | 7.8 | 0.00 | 0.24 | 0.00 | 52 | 1006.7 |
| 20260507135334 | 59 | 44 | 1.7 | 7.8 | 0.00 | 0.24 | 0.00 | 58 | 1006.7 |
| 20260507135009 | 59 | 201 | 1.7 | 7.8 | 0.00 | 0.24 | 0.00 | 56 | 1006.7 |
| 20260507134803 | 59 | 80 | 1.7 | 7.8 | 0.00 | 0.24 | 0.00 | 53 | 1006.7 |
| 20260507134556 | 59 | 26 | 0.9 | 7.0 | 0.00 | 0.24 | 0.00 | 53 | 1006.8 |
| 20260507134233 | 58 | 55 | 0.9 | 2.6 | 0.00 | 0.24 | 0.00 | 58 | 1006.8 |
| 20260507134033 | 58 | 65 | 0.9 | 2.6 | 0.00 | 0.24 | 0.00 | 57 | 1006.9 |
| 20260507133828 | 58 | 115 | 0.9 | 2.6 | 0.00 | 0.24 | 0.00 | 58 | 1006.9 |
| 20260507133618 | 58 | 85 | 0.9 | 6.1 | 0.00 | 0.24 | 0.00 | 58 | 1007.0 |
| 20260507133415 | 58 | 242 | 1.7 | 6.1 | 0.00 | 0.24 | 0.00 | 58 | 1007.0 |
| 20260507133209 | 58 | 214 | 0.9 | 6.1 | 0.00 | 0.24 | 0.00 | 63 | 1007.1 |
| 20260507132850 | 58 | 214 | 0.9 | 6.1 | 0.00 | 0.24 | 0.00 | 59 | 1007.2 |
| 20260507132643 | 57 | 28 | 0.9 | 6.1 | 0.00 | 0.24 | 0.00 | 59 | 1007.2 |
| 20260507132434 | 57 | 22 | 0.9 | 6.1 | 0.00 | 0.24 | 0.00 | 61 | 1007.2 |
| 20260507132110 | 56 | 5 | 0.9 | 6.1 | 0.00 | 0.24 | 0.00 | 62 | 1007.2 |
| 20260507131906 | 56 | 350 | 0.9 | 6.1 | 0.00 | 0.24 | 0.00 | 63 | 1007.3 |
| 20260507131659 | 56 | 140 | 0.9 | 6.1 | 0.00 | 0.24 | 0.00 | 60 | 1007.3 |
| 20260507131457 | 56 | 285 | 0.9 | 6.1 | 0.00 | 0.24 | 0.00 | 60 | 1007.3 |
| 20260507131255 | 56 | 157 | 1.7 | 6.1 | 0.00 | 0.24 | 0.00 | 61 | 1007.3 |
| 20260507130939 | 56 | 291 | 1.7 | 6.1 | 0.00 | 0.24 | 0.00 | 64 | 1007.3 |
| 20260507130736 | 55 | 10 | 0.9 | 5.2 | 0.00 | 0.24 | 0.00 | 65 | 1007.3 |
| 20260507130530 | 55 | 228 | 1.7 | 5.2 | 0.00 | 0.24 | 0.00 | 65 | 1007.3 |
| 20260507130330 | 55 | 228 | 1.7 | 5.2 | 0.00 | 0.24 | 0.00 | 62 | 1007.4 |
| 20260507130124 | 55 | 23 | 0.9 | 5.2 | 0.00 | 0.24 | 0.00 | 65 | 1007.4 |
| 20260507125916 | 55 | 193 | 0.9 | 5.2 | 0.00 | 0.24 | 0.00 | 65 | 1007.4 |
| 20260507125710 | 55 | 300 | 0.9 | 5.2 | 0.00 | 0.24 | 0.00 | 63 | 1007.4 |
| 20260507125503 | 55 | 236 | 0.9 | 5.2 | 0.00 | 0.24 | 0.00 | 65 | 1007.3 |
| 20260507125253 | 55 | 270 | 0.9 | 6.1 | 0.00 | 0.24 | 0.00 | 71 | 1007.4 |
| 20260507124933 | 55 | 262 | 0.9 | 6.1 | 0.00 | 0.24 | 0.00 | 67 | 1007.4 |
| 20260507124730 | 55 | 321 | 0.9 | 6.1 | 0.00 | 0.24 | 0.00 | 67 | 1007.4 |
| 20260507124527 | 54 | 303 | 0.9 | 6.1 | 0.00 | 0.24 | 0.00 | 69 | 1007.5 |
| 20260507124324 | 54 | 294 | 0.9 | 6.1 | 0.00 | 0.24 | 0.00 | 70 | 1007.4 |
| 20260507124117 | 54 | 209 | 0.9 | 6.1 | 0.00 | 0.24 | 0.00 | 71 | 1007.5 |
| 20260507123913 | 54 | 209 | 0.9 | 6.1 | 0.00 | 0.24 | 0.00 | 74 | 1007.5 |
| 20260507123555 | 54 | 209 | 0.9 | 6.1 | 0.00 | 0.24 | 0.00 | 73 | 1007.5 |
| 20260507123350 | 53 | 0 | 0.9 | 6.1 | 0.00 | 0.24 | 0.00 | 73 | 1007.5 |
| 20260507123030 | 53 | 296 | 0.9 | 3.5 | 0.00 | 0.24 | 0.00 | 73 | 1007.4 |
| 20260507122706 | 53 | 315 | 0.9 | 3.5 | 0.00 | 0.24 | 0.00 | 73 | 1007.5 |
| 20260507122500 | 52 | 227 | 0.9 | 3.5 | 0.00 | 0.24 | 0.00 | 75 | 1007.6 |
| 20260507122256 | 52 | 227 | 0.9 | 3.5 | 0.00 | 0.24 | 0.00 | 75 | 1007.6 |
| 20260507122057 | 52 | 202 | 0.9 | 3.5 | 0.00 | 0.24 | 0.00 | 74 | 1007.6 |
| 20260507121847 | 52 | 202 | 0.9 | 3.5 | 0.00 | 0.24 | 0.00 | 74 | 1007.6 |
| 20260507121641 | 52 | 304 | 0.9 | 2.6 | 0.00 | 0.24 | 0.00 | 76 | 1007.5 |
| 20260507121442 | 52 | 236 | 0.9 | 2.6 | 0.00 | 0.24 | 0.00 | 75 | 1007.6 |
| 20260507121120 | 51 | 225 | 0.9 | 2.6 | 0.00 | 0.24 | 0.00 | 77 | 1007.5 |
| 20260507120915 | 51 | 288 | 0.9 | 8.7 | 0.00 | 0.24 | 0.00 | 78 | 1007.5 |
| 20260507120716 | 51 | 40 | 0.0 | 8.7 | 0.00 | 0.24 | 0.00 | 79 | 1007.6 |
| 20260507120506 | 51 | 199 | 0.9 | 8.7 | 0.00 | 0.24 | 0.00 | 79 | 1007.6 |
| 20260507120306 | 51 | 199 | 0.9 | 8.7 | 0.00 | 0.24 | 0.00 | 78 | 1007.5 |
| 20260507120104 | 51 | 255 | 0.9 | 8.7 | 0.00 | 0.24 | 0.00 | 78 | 1007.4 |
| 20260507115746 | 51 | 275 | 0.9 | 8.7 | 0.00 | 0.24 | 0.00 | 79 | 1007.5 |
| 20260507115544 | 51 | 336 | 0.9 | 8.7 | 0.00 | 0.24 | 0.00 | 78 | 1007.5 |
| 20260507115339 | 50 | 342 | 0.9 | 8.7 | 0.00 | 0.24 | 0.00 | 80 | 1007.6 |
| 20260507115021 | 50 | 142 | 0.0 | 3.5 | 0.00 | 0.24 | 0.00 | 83 | 1007.5 |
| 20260507114705 | 49 | 264 | 0.0 | 3.5 | 0.00 | 0.24 | 0.00 | 82 | 1007.4 |
| 20260507114456 | 49 | 242 | 0.0 | 3.5 | 0.00 | 0.24 | 0.00 | 84 | 1007.4 |
| 20260507114249 | 49 | 329 | 0.0 | 2.6 | 0.00 | 0.24 | 0.00 | 84 | 1007.4 |
| 20260507114049 | 49 | 329 | 0.0 | 2.6 | 0.00 | 0.24 | 0.00 | 83 | 1007.2 |
| 20260507113846 | 49 | 57 | 0.0 | 2.6 | 0.00 | 0.24 | 0.00 | 83 | 1007.2 |
| 20260507113645 | 49 | 273 | 0.0 | 2.6 | 0.00 | 0.24 | 0.00 | 83 | 1007.2 |
| 20260507113442 | 49 | 310 | 0.9 | 3.5 | 0.00 | 0.24 | 0.00 | 83 | 1007.1 |
| 20260507113233 | 49 | 59 | 0.9 | 3.5 | 0.00 | 0.24 | 0.00 | 83 | 1007.2 |
| 20260507113032 | 49 | 86 | 0.9 | 3.5 | 0.00 | 0.24 | 0.00 | 82 | 1007.1 |
| 20260507112825 | 49 | 331 | 0.0 | 3.5 | 0.00 | 0.24 | 0.00 | 84 | 1007.1 |
| 20260507112500 | 49 | 303 | 0.0 | 3.5 | 0.00 | 0.24 | 0.00 | 84 | 1007.2 |
| 20260507112257 | 48 | 336 | 0.0 | 3.5 | 0.00 | 0.24 | 0.00 | 83 | 1007.2 |
| 20260507112051 | 48 | 277 | 0.0 | 3.5 | 0.00 | 0.24 | 0.00 | 84 | 1007.3 |
| 20260507111731 | 48 | 277 | 0.0 | 3.5 | 0.00 | 0.24 | 0.00 | 84 | 1007.4 |
| 20260507111525 | 48 | 355 | 0.0 | 0.0 | 0.00 | 0.24 | 0.00 | 85 | 1007.5 |
| 20260507111208 | 48 | 302 | 0.0 | 2.6 | 0.00 | 0.24 | 0.00 | 85 | 1007.5 |
| 20260507111004 | 48 | 256 | 0.0 | 1.7 | 0.00 | 0.24 | 0.00 | 85 | 1007.5 |
| 20260507110756 | 48 | 259 | 0.0 | 1.7 | 0.00 | 0.24 | 0.00 | 86 | 1007.4 |
| 20260507110436 | 48 | 355 | 0.0 | 3.5 | 0.00 | 0.24 | 0.00 | 85 | 1007.1 |
| 20260507110228 | 48 | 355 | 0.0 | 3.5 | 0.00 | 0.24 | 0.00 | 84 | 1007.2 |
| 20260507110020 | 48 | 276 | 0.0 | 1.7 | 0.00 | 0.24 | 0.00 | 85 | 1007.4 |
| 20260507105815 | 48 | 13 | 0.0 | 3.5 | 0.00 | 0.24 | 0.00 | 85 | 1007.2 |
| 20260507105614 | 48 | 355 | 0.0 | 3.5 | 0.00 | 0.24 | 0.00 | 85 | 1006.9 |
| 20260507105252 | 48 | 346 | 0.0 | 3.5 | 0.00 | 0.24 | 0.00 | 86 | 1007.0 |
| 20260507104936 | 48 | 324 | 0.0 | 1.7 | 0.00 | 0.24 | 0.00 | 86 | 1007.1 |
| 20260507104734 | 48 | 355 | 0.0 | 1.7 | 0.00 | 0.24 | 0.00 | 86 | 1006.9 |
| 20260507104418 | 48 | 355 | 0.0 | 1.7 | 0.00 | 0.24 | 0.00 | 86 | 1006.9 |
| 20260507104219 | 48 | 355 | 0.0 | 1.7 | 0.00 | 0.24 | 0.00 | 86 | 1006.9 |
| 20260507104014 | 48 | 17 | 0.0 | 0.0 | 0.00 | 0.24 | 0.00 | 87 | 1006.9 |
| 20260507103806 | 48 | 17 | 0.0 | 0.0 | 0.00 | 0.24 | 0.00 | 86 | 1006.9 |
| 20260507103559 | 48 | 17 | 0.0 | 1.7 | 0.00 | 0.24 | 0.00 | 86 | 1006.8 |
| 20260507103349 | 48 | 5 | 0.0 | 0.0 | 0.00 | 0.24 | 0.00 | 86 | 1006.8 |
| 20260507103139 | 48 | 5 | 0.0 | 3.5 | 0.00 | 0.24 | 0.00 | 86 | 1006.9 |
| 20260507102928 | 48 | 9 | 0.0 | 3.5 | 0.00 | 0.24 | 0.00 | 86 | 1006.8 |
| 20260507102722 | 48 | 5 | 0.0 | 1.7 | 0.00 | 0.24 | 0.00 | 88 | 1006.8 |
| 20260507102404 | 48 | 171 | 0.0 | 1.7 | 0.00 | 0.24 | 0.00 | 88 | 1007.0 |
| 20260507102200 | 48 | 298 | 0.0 | 1.7 | 0.00 | 0.24 | 0.00 | 87 | 1007.0 |
| 20260507101956 | 48 | 20 | 0.9 | 3.5 | 0.00 | 0.24 | 0.00 | 87 | 1006.9 |
| 20260507101755 | 48 | 5 | 0.0 | 3.5 | 0.00 | 0.24 | 0.00 | 87 | 1007.0 |
| 20260507101431 | 48 | 26 | 0.0 | 3.5 | 0.00 | 0.24 | 0.00 | 88 | 1007.0 |
| 20260507101224 | 48 | 296 | 0.0 | 3.5 | 0.00 | 0.24 | 0.00 | 88 | 1007.0 |
| 20260507101015 | 48 | 338 | 0.0 | 0.9 | 0.00 | 0.24 | 0.00 | 88 | 1006.9 |
| 20260507100652 | 48 | 346 | 0.0 | 0.0 | 0.00 | 0.24 | 0.00 | 88 | 1006.8 |
| 20260507100453 | 48 | 345 | 0.0 | 2.6 | 0.00 | 0.24 | 0.00 | 88 | 1006.9 |
| 20260507100251 | 48 | 313 | 0.0 | 2.6 | 0.00 | 0.24 | 0.00 | 89 | 1007.0 |
| 20260507100046 | 48 | 325 | 0.0 | 2.6 | 0.00 | 0.24 | 0.00 | 89 | 1007.3 |
| 20260507095841 | 48 | 281 | 0.0 | 2.6 | 0.00 | 0.24 | 0.00 | 89 | 1007.0 |
| 20260507095523 | 48 | 309 | 0.0 | 2.6 | 0.00 | 0.24 | 0.00 | 88 | 1006.8 |
| 20260507095324 | 48 | 312 | 0.0 | 2.6 | 0.00 | 0.24 | 0.00 | 89 | 1006.8 |
| 20260507095121 | 48 | 35 | 0.0 | 1.7 | 0.00 | 0.24 | 0.00 | 89 | 1006.8 |
| 20260507094922 | 48 | 9 | 0.0 | 1.7 | 0.00 | 0.24 | 0.00 | 89 | 1006.8 |
| 20260507094713 | 48 | 39 | 0.0 | 1.7 | 0.00 | 0.24 | 0.00 | 89 | 1006.8 |
| 20260507094512 | 48 | 279 | 0.0 | 1.7 | 0.00 | 0.24 | 0.00 | 89 | 1007.1 |
| 20260507094150 | 48 | 279 | 0.0 | 1.7 | 0.00 | 0.24 | 0.00 | 89 | 1007.1 |
| 20260507093945 | 48 | 279 | 0.0 | 1.7 | 0.00 | 0.24 | 0.00 | 89 | 1007.0 |
| 20260507093741 | 48 | 279 | 0.0 | 1.7 | 0.00 | 0.24 | 0.00 | 88 | 1006.9 |
| 20260507093536 | 48 | 302 | 0.0 | 2.6 | 0.00 | 0.24 | 0.00 | 88 | 1006.8 |
| 20260507093211 | 48 | 324 | 0.0 | 2.6 | 0.00 | 0.24 | 0.00 | 88 | 1006.8 |
| 20260507093006 | 48 | 324 | 0.9 | 2.6 | 0.00 | 0.24 | 0.00 | 89 | 1006.9 |
| 20260507092806 | 48 | 267 | 0.0 | 2.6 | 0.00 | 0.24 | 0.00 | 89 | 1006.9 |
| 20260507092559 | 48 | 61 | 0.0 | 2.6 | 0.00 | 0.24 | 0.00 | 89 | 1006.9 |
| 20260507092352 | 48 | 13 | 0.0 | 2.6 | 0.00 | 0.24 | 0.00 | 89 | 1006.9 |
| 20260507092148 | 48 | 222 | 0.0 | 2.6 | 0.00 | 0.24 | 0.00 | 89 | 1007.0 |
| 20260507091942 | 48 | 320 | 0.0 | 2.6 | 0.00 | 0.24 | 0.00 | 89 | 1007.0 |
| 20260507091621 | 48 | 322 | 0.0 | 2.6 | 0.00 | 0.24 | 0.00 | 89 | 1007.0 |
| 20260507091421 | 48 | 287 | 0.0 | 6.1 | 0.00 | 0.24 | 0.00 | 89 | 1006.8 |
| 20260507091212 | 48 | 232 | 0.0 | 6.1 | 0.00 | 0.24 | 0.00 | 89 | 1006.5 |
| 20260507091011 | 48 | 296 | 0.0 | 6.1 | 0.00 | 0.24 | 0.00 | 89 | 1006.5 |
| 20260507090808 | 48 | 248 | 0.9 | 6.1 | 0.00 | 0.24 | 0.00 | 90 | 1006.6 |
| 20260507090558 | 48 | 141 | 0.0 | 6.1 | 0.00 | 0.24 | 0.00 | 90 | 1006.7 |
| 20260507090350 | 48 | 141 | 0.0 | 6.1 | 0.00 | 0.24 | 0.00 | 90 | 1006.5 |
| 20260507090143 | 48 | 141 | 0.0 | 6.1 | 0.00 | 0.24 | 0.00 | 90 | 1006.4 |
| 20260507085937 | 48 | 271 | 0.0 | 6.1 | 0.00 | 0.24 | 0.00 | 89 | 1006.4 |
| 20260507085731 | 48 | 234 | 0.0 | 6.1 | 0.00 | 0.24 | 0.00 | 89 | 1006.5 |
| 20260507085523 | 48 | 303 | 0.0 | 1.7 | 0.00 | 0.24 | 0.00 | 89 | 1006.4 |
| 20260507085315 | 48 | 271 | 0.0 | 2.6 | 0.00 | 0.24 | 0.00 | 89 | 1006.6 |
| 20260507085115 | 49 | 268 | 0.9 | 2.6 | 0.00 | 0.24 | 0.00 | 89 | 1006.7 |
| 20260507084757 | 49 | 268 | 0.9 | 2.6 | 0.00 | 0.24 | 0.00 | 89 | 1006.6 |
| 20260507084438 | 49 | 268 | 0.0 | 2.6 | 0.00 | 0.24 | 0.00 | 89 | 1006.3 |
| 20260507084230 | 49 | 266 | 0.0 | 2.6 | 0.00 | 0.24 | 0.00 | 88 | 1006.2 |
| 20260507084022 | 49 | 222 | 0.9 | 2.6 | 0.00 | 0.24 | 0.00 | 88 | 1006.3 |
| 20260507083822 | 49 | 342 | 0.9 | 2.6 | 0.00 | 0.24 | 0.00 | 88 | 1006.3 |
| 20260507083622 | 49 | 337 | 0.0 | 2.6 | 0.00 | 0.24 | 0.00 | 88 | 1006.1 |
| 20260507083301 | 49 | 13 | 0.9 | 2.6 | 0.00 | 0.24 | 0.00 | 87 | 1006.2 |
| 20260507083054 | 49 | 261 | 0.9 | 2.6 | 0.00 | 0.24 | 0.00 | 88 | 1006.3 |
| 20260507082849 | 49 | 261 | 0.9 | 2.6 | 0.00 | 0.24 | 0.00 | 88 | 1006.4 |
| 20260507082640 | 49 | 261 | 0.9 | 2.6 | 0.00 | 0.24 | 0.00 | 87 | 1006.4 |
| 20260507082441 | 49 | 334 | 0.0 | 1.7 | 0.00 | 0.24 | 0.00 | 88 | 1006.4 |
| 20260507082231 | 49 | 241 | 0.0 | 1.7 | 0.00 | 0.24 | 0.00 | 87 | 1006.3 |
| 20260507082028 | 50 | 258 | 0.0 | 1.7 | 0.00 | 0.24 | 0.00 | 86 | 1006.3 |
| 20260507081826 | 50 | 262 | 0.0 | 2.6 | 0.00 | 0.24 | 0.00 | 86 | 1006.1 |
| 20260507081620 | 50 | 314 | 0.0 | 4.3 | 0.00 | 0.24 | 0.00 | 86 | 1006.0 |
| 20260507081410 | 50 | 69 | 0.0 | 4.3 | 0.00 | 0.24 | 0.00 | 86 | 1006.2 |
| 20260507081055 | 50 | 235 | 0.9 | 4.3 | 0.00 | 0.24 | 0.00 | 86 | 1006.2 |
| 20260507080849 | 50 | 232 | 0.9 | 4.3 | 0.00 | 0.24 | 0.00 | 86 | 1006.2 |
| 20260507080646 | 50 | 232 | 0.9 | 6.1 | 0.00 | 0.24 | 0.00 | 85 | 1006.2 |
| 20260507080439 | 50 | 264 | 0.9 | 6.1 | 0.00 | 0.24 | 0.00 | 85 | 1006.3 |
| 20260507080114 | 50 | 63 | 0.9 | 6.1 | 0.00 | 0.24 | 0.00 | 85 | 1006.4 |
| 20260507075906 | 50 | 273 | 0.9 | 6.1 | 0.00 | 0.24 | 0.00 | 85 | 1006.4 |
| 20260507075707 | 50 | 300 | 0.9 | 6.1 | 0.00 | 0.24 | 0.00 | 85 | 1006.4 |
| 20260507075459 | 50 | 259 | 1.7 | 7.0 | 0.00 | 0.24 | 0.00 | 85 | 1006.4 |
| 20260507075255 | 50 | 290 | 1.7 | 7.0 | 0.00 | 0.24 | 0.00 | 85 | 1006.4 |
| 20260507075048 | 50 | 254 | 1.7 | 7.0 | 0.00 | 0.24 | 0.00 | 84 | 1006.3 |
| 20260507074843 | 50 | 273 | 1.7 | 7.0 | 0.00 | 0.24 | 0.00 | 84 | 1006.2 |
| 20260507074638 | 50 | 321 | 1.7 | 7.0 | 0.00 | 0.24 | 0.00 | 85 | 1006.0 |
| 20260507074317 | 50 | 262 | 0.9 | 7.0 | 0.00 | 0.24 | 0.00 | 85 | 1005.9 |
| 20260507074002 | 50 | 313 | 1.7 | 7.0 | 0.00 | 0.24 | 0.00 | 85 | 1005.8 |
| 20260507073753 | 51 | 256 | 0.9 | 7.0 | 0.00 | 0.24 | 0.00 | 85 | 1006.0 |
| 20260507073548 | 51 | 309 | 0.9 | 6.1 | 0.00 | 0.24 | 0.00 | 85 | 1006.0 |
| 20260507073345 | 51 | 253 | 0.9 | 6.1 | 0.00 | 0.24 | 0.00 | 85 | 1006.0 |
| 20260507073141 | 51 | 320 | 0.9 | 6.1 | 0.00 | 0.24 | 0.00 | 86 | 1006.0 |
| 20260507072936 | 51 | 288 | 0.9 | 6.1 | 0.00 | 0.24 | 0.00 | 85 | 1005.9 |
| 20260507072727 | 51 | 211 | 0.9 | 6.1 | 0.00 | 0.24 | 0.00 | 85 | 1005.7 |
| 20260507072528 | 51 | 21 | 0.9 | 6.1 | 0.00 | 0.24 | 0.00 | 85 | 1005.8 |
| 20260507072324 | 51 | 232 | 0.9 | 6.1 | 0.00 | 0.24 | 0.00 | 85 | 1005.8 |
| 20260507072124 | 51 | 287 | 0.9 | 7.8 | 0.00 | 0.24 | 0.00 | 86 | 1005.8 |
| 20260507071924 | 51 | 288 | 0.9 | 7.8 | 0.00 | 0.24 | 0.00 | 85 | 1005.9 |
| 20260507071719 | 51 | 190 | 0.9 | 7.8 | 0.00 | 0.24 | 0.00 | 86 | 1006.0 |
| 20260507071511 | 51 | 331 | 1.7 | 7.8 | 0.00 | 0.24 | 0.00 | 86 | 1005.9 |
| 20260507071149 | 51 | 276 | 1.7 | 7.8 | 0.00 | 0.24 | 0.00 | 85 | 1006.1 |
| 20260507070828 | 51 | 233 | 1.7 | 7.8 | 0.00 | 0.24 | 0.00 | 85 | 1006.1 |
| 20260507070629 | 51 | 233 | 1.7 | 7.8 | 0.00 | 0.24 | 0.00 | 85 | 1006.0 |
| 20260507070426 | 51 | 250 | 1.7 | 7.8 | 0.00 | 0.24 | 0.00 | 85 | 1005.8 |
| 20260507070218 | 51 | 242 | 1.7 | 7.8 | 0.00 | 0.24 | 0.00 | 85 | 1005.7 |
| 20260507070016 | 51 | 214 | 1.7 | 8.7 | 0.00 | 0.24 | 0.00 | 86 | 1005.6 |
| 20260507065815 | 51 | 214 | 2.6 | 8.7 | 0.00 | 0.24 | 0.00 | 85 | 1005.7 |
| 20260507065615 | 51 | 309 | 1.7 | 8.7 | 0.00 | 0.24 | 0.00 | 85 | 1005.6 |
| 20260507065413 | 51 | 5 | 1.7 | 8.7 | 0.00 | 0.24 | 0.00 | 85 | 1005.7 |
| 20260507065204 | 51 | 207 | 1.7 | 8.7 | 0.00 | 0.24 | 0.00 | 86 | 1005.8 |
| 20260507065003 | 51 | 277 | 1.7 | 8.7 | 0.00 | 0.24 | 0.00 | 86 | 1005.9 |
| 20260507064757 | 51 | 241 | 1.7 | 8.7 | 0.00 | 0.24 | 0.00 | 86 | 1005.9 |
| 20260507064548 | 51 | 254 | 1.7 | 8.7 | 0.00 | 0.24 | 0.00 | 86 | 1005.8 |
| 20260507064340 | 51 | 263 | 1.7 | 8.7 | 0.00 | 0.24 | 0.00 | 87 | 1005.7 |
| 20260507064026 | 51 | 307 | 0.9 | 6.1 | 0.00 | 0.24 | 0.00 | 86 | 1005.5 |
| 20260507063815 | 51 | 284 | 0.9 | 6.1 | 0.00 | 0.24 | 0.00 | 86 | 1005.5 |
| 20260507063459 | 51 | 59 | 0.9 | 4.3 | 0.00 | 0.24 | 0.00 | 86 | 1005.5 |
| 20260507063259 | 52 | 131 | 0.9 | 4.3 | 0.00 | 0.24 | 0.00 | 86 | 1005.6 |
| 20260507063055 | 52 | 206 | 0.9 | 4.3 | 0.00 | 0.24 | 0.00 | 86 | 1005.6 |
| 20260507062850 | 52 | 252 | 0.9 | 4.3 | 0.00 | 0.24 | 0.00 | 86 | 1005.4 |
| 20260507062645 | 52 | 284 | 0.9 | 5.2 | 0.00 | 0.24 | 0.00 | 86 | 1005.4 |
| 20260507062441 | 52 | 290 | 0.9 | 5.2 | 0.00 | 0.24 | 0.00 | 85 | 1005.6 |
| 20260507062125 | 52 | 286 | 0.9 | 5.2 | 0.00 | 0.24 | 0.00 | 86 | 1005.6 |
| 20260507061803 | 52 | 174 | 0.9 | 7.8 | 0.00 | 0.24 | 0.00 | 85 | 1005.5 |
| 20260507061447 | 52 | 281 | 0.9 | 7.8 | 0.00 | 0.24 | 0.00 | 84 | 1005.5 |
| 20260507061248 | 52 | 227 | 0.9 | 7.8 | 0.00 | 0.24 | 0.00 | 84 | 1005.6 |
| 20260507061039 | 52 | 347 | 0.9 | 7.8 | 0.00 | 0.24 | 0.00 | 85 | 1005.6 |
| 20260507060834 | 52 | 243 | 0.9 | 7.8 | 0.00 | 0.24 | 0.00 | 84 | 1005.6 |
| 20260507060514 | 52 | 266 | 0.9 | 7.8 | 0.00 | 0.24 | 0.00 | 85 | 1005.6 |
| 20260507060307 | 52 | 273 | 1.7 | 7.8 | 0.00 | 0.24 | 0.00 | 85 | 1005.6 |
| 20260507060057 | 52 | 191 | 1.7 | 7.8 | 0.00 | 0.24 | 0.00 | 85 | 1005.6 |
| 20260507055858 | 52 | 248 | 1.7 | 7.8 | 0.00 | 0.24 | 0.00 | 84 | 1005.7 |
| 20260507055650 | 52 | 240 | 1.7 | 6.1 | 0.00 | 0.24 | 0.00 | 84 | 1005.6 |
| 20260507055452 | 52 | 236 | 1.7 | 6.1 | 0.00 | 0.24 | 0.00 | 85 | 1005.9 |
| 20260507055131 | 52 | 298 | 1.7 | 6.1 | 0.00 | 0.24 | 0.00 | 85 | 1005.9 |
| 20260507054924 | 52 | 220 | 1.7 | 4.3 | 0.00 | 0.24 | 0.00 | 85 | 1006.0 |
| 20260507054718 | 52 | 246 | 1.7 | 3.5 | 0.00 | 0.24 | 0.00 | 85 | 1006.0 |
| 20260507054400 | 52 | 298 | 0.9 | 3.5 | 0.00 | 0.24 | 0.00 | 85 | 1006.0 |
| 20260507054159 | 52 | 269 | 0.9 | 5.2 | 0.00 | 0.24 | 0.00 | 85 | 1005.9 |
| 20260507053955 | 52 | 261 | 0.9 | 5.2 | 0.00 | 0.24 | 0.00 | 86 | 1006.0 |
| 20260507053746 | 52 | 263 | 1.7 | 5.2 | 0.00 | 0.24 | 0.00 | 85 | 1005.9 |
| 20260507053544 | 52 | 289 | 1.7 | 5.2 | 0.00 | 0.24 | 0.00 | 85 | 1005.9 |
| 20260507053345 | 52 | 220 | 1.7 | 5.2 | 0.00 | 0.24 | 0.00 | 85 | 1005.8 |
| 20260507053139 | 52 | 217 | 1.7 | 5.2 | 0.00 | 0.24 | 0.00 | 86 | 1005.9 |
| 20260507052823 | 52 | 269 | 1.7 | 5.2 | 0.00 | 0.24 | 0.00 | 86 | 1006.0 |
| 20260507052616 | 52 | 267 | 1.7 | 5.2 | 0.00 | 0.24 | 0.00 | 86 | 1006.1 |
| 20260507052253 | 52 | 254 | 1.7 | 4.3 | 0.00 | 0.24 | 0.00 | 86 | 1005.9 |
| 20260507051933 | 53 | 275 | 1.7 | 4.3 | 0.00 | 0.24 | 0.00 | 86 | 1005.9 |
| 20260507051725 | 53 | 334 | 0.9 | 3.5 | 0.00 | 0.24 | 0.00 | 86 | 1005.9 |
| 20260507051526 | 53 | 281 | 0.9 | 7.0 | 0.00 | 0.24 | 0.00 | 86 | 1005.8 |
| 20260507051320 | 53 | 257 | 1.7 | 7.0 | 0.00 | 0.24 | 0.00 | 86 | 1005.7 |
| 20260507051001 | 53 | 205 | 1.7 | 7.0 | 0.00 | 0.24 | 0.00 | 86 | 1005.6 |
| 20260507050802 | 53 | 205 | 1.7 | 7.0 | 0.00 | 0.24 | 0.00 | 85 | 1005.6 |
| 20260507050603 | 53 | 265 | 1.7 | 8.7 | 0.00 | 0.24 | 0.00 | 86 | 1005.7 |
| 20260507050404 | 53 | 191 | 0.9 | 8.7 | 0.00 | 0.24 | 0.00 | 86 | 1005.8 |
| 20260507050044 | 53 | 191 | 1.7 | 8.7 | 0.00 | 0.24 | 0.00 | 86 | 1005.8 |
| 20260507045834 | 53 | 281 | 1.7 | 8.7 | 0.00 | 0.24 | 0.00 | 86 | 1005.8 |
| 20260507045630 | 53 | 225 | 1.7 | 8.7 | 0.00 | 0.24 | 0.00 | 86 | 1005.7 |
| 20260507045423 | 53 | 213 | 1.7 | 8.7 | 0.00 | 0.24 | 0.00 | 87 | 1005.7 |
| 20260507045219 | 54 | 278 | 1.7 | 8.7 | 0.00 | 0.24 | 0.00 | 86 | 1005.7 |
| 20260507045018 | 54 | 276 | 1.7 | 8.7 | 0.00 | 0.24 | 0.00 | 87 | 1005.6 |
| 20260507044815 | 54 | 272 | 1.7 | 8.7 | 0.00 | 0.24 | 0.00 | 86 | 1005.6 |
| 20260507044454 | 54 | 318 | 0.9 | 6.1 | 0.00 | 0.24 | 0.00 | 87 | 1005.6 |
| 20260507044249 | 54 | 305 | 0.9 | 6.1 | 0.00 | 0.24 | 0.00 | 87 | 1005.6 |
| 20260507044049 | 54 | 271 | 0.9 | 6.1 | 0.00 | 0.24 | 0.00 | 87 | 1005.6 |
| 20260507043734 | 54 | 257 | 0.9 | 6.1 | 0.00 | 0.24 | 0.00 | 87 | 1005.6 |
| 20260507043534 | 54 | 232 | 0.9 | 10.4 | 0.00 | 0.24 | 0.00 | 87 | 1005.7 |
| 20260507043330 | 55 | 316 | 0.9 | 10.4 | 0.00 | 0.24 | 0.00 | 86 | 1005.7 |
| 20260507043009 | 55 | 275 | 0.9 | 10.4 | 0.00 | 0.24 | 0.00 | 87 | 1005.8 |
| 20260507042651 | 55 | 260 | 0.9 | 10.4 | 0.00 | 0.24 | 0.00 | 87 | 1005.9 |
| 20260507042443 | 55 | 252 | 1.7 | 10.4 | 0.00 | 0.24 | 0.00 | 87 | 1005.9 |
| 20260507042238 | 55 | 252 | 1.7 | 10.4 | 0.00 | 0.24 | 0.00 | 86 | 1005.9 |
| 20260507042032 | 55 | 240 | 2.6 | 10.4 | 0.00 | 0.24 | 0.00 | 86 | 1005.9 |
| 20260507041828 | 55 | 290 | 2.6 | 10.4 | 0.00 | 0.24 | 0.00 | 86 | 1005.8 |
| 20260507041626 | 55 | 238 | 2.6 | 10.4 | 0.00 | 0.24 | 0.00 | 86 | 1005.8 |
| 20260507041417 | 56 | 231 | 1.7 | 8.7 | 0.00 | 0.24 | 0.00 | 87 | 1005.8 |
| 20260507041206 | 56 | 297 | 2.6 | 7.0 | 0.00 | 0.24 | 0.00 | 87 | 1005.7 |
| 20260507041001 | 56 | 192 | 2.6 | 8.7 | 0.00 | 0.24 | 0.00 | 87 | 1005.6 |
| 20260507040753 | 56 | 298 | 1.7 | 8.7 | 0.00 | 0.24 | 0.00 | 86 | 1005.6 |
| 20260507040544 | 56 | 286 | 1.7 | 8.7 | 0.00 | 0.24 | 0.00 | 87 | 1005.5 |
| 20260507040341 | 56 | 266 | 1.7 | 8.7 | 0.00 | 0.24 | 0.00 | 88 | 1005.4 |
| 20260507040138 | 57 | 271 | 1.7 | 8.7 | 0.00 | 0.24 | 0.00 | 88 | 1005.4 |
| 20260507035937 | 57 | 265 | 1.7 | 8.7 | 0.00 | 0.24 | 0.25 | 89 | 1005.4 |
| 20260507035733 | 57 | 223 | 1.7 | 8.7 | 0.00 | 0.24 | 0.25 | 89 | 1005.4 |
| 20260507035529 | 57 | 270 | 0.9 | 8.7 | 0.00 | 0.24 | 0.25 | 89 | 1005.3 |
| 20260507035321 | 57 | 335 | 0.9 | 8.7 | 0.00 | 0.24 | 0.25 | 89 | 1005.3 |
| 20260507035112 | 57 | 0 | 0.9 | 7.8 | 0.00 | 0.24 | 0.24 | 90 | 1005.3 |
| 20260507034908 | 57 | 244 | 0.9 | 7.8 | 0.00 | 0.24 | 0.24 | 90 | 1005.1 |
| 20260507034547 | 58 | 253 | 0.9 | 7.8 | 0.00 | 0.24 | 0.24 | 90 | 1005.1 |
| 20260507034341 | 58 | 323 | 1.7 | 7.8 | 0.00 | 0.24 | 0.24 | 90 | 1005.1 |
| 20260507034019 | 58 | 206 | 1.7 | 6.1 | 0.00 | 0.24 | 0.24 | 90 | 1005.0 |
| 20260507033814 | 58 | 229 | 1.7 | 6.1 | 0.00 | 0.24 | 0.24 | 91 | 1005.1 |
| 20260507033613 | 58 | 267 | 1.7 | 7.0 | 0.00 | 0.24 | 0.24 | 91 | 1005.0 |
| 20260507033407 | 58 | 326 | 1.7 | 7.0 | 0.00 | 0.24 | 0.24 | 91 | 1004.9 |
| 20260507033208 | 58 | 42 | 1.7 | 7.0 | 0.00 | 0.24 | 0.24 | 90 | 1004.8 |
| 20260507033009 | 58 | 281 | 1.7 | 7.0 | 0.00 | 0.24 | 0.24 | 90 | 1004.9 |
| 20260507032806 | 58 | 246 | 1.7 | 7.0 | 0.00 | 0.24 | 0.24 | 90 | 1004.9 |
| 20260507032556 | 59 | 144 | 1.7 | 7.0 | 0.00 | 0.24 | 0.24 | 90 | 1005.0 |
| 20260507032356 | 59 | 0 | 1.7 | 7.0 | 0.00 | 0.24 | 0.24 | 90 | 1005.0 |
| 20260507032146 | 59 | 198 | 1.7 | 7.0 | 0.00 | 0.24 | 0.24 | 90 | 1004.9 |
| 20260507031940 | 59 | 200 | 1.7 | 7.0 | 0.00 | 0.24 | 0.24 | 91 | 1004.8 |
| 20260507031738 | 60 | 224 | 1.7 | 7.0 | 0.00 | 0.24 | 0.24 | 92 | 1004.8 |
| 20260507031529 | 60 | 257 | 1.7 | 5.2 | 0.00 | 0.24 | 0.24 | 92 | 1005.0 |
| 20260507031210 | 60 | 259 | 1.7 | 5.2 | 0.00 | 0.24 | 0.24 | 92 | 1004.8 |
| 20260507031006 | 60 | 249 | 1.7 | 3.5 | 0.00 | 0.24 | 0.24 | 92 | 1004.6 |
| 20260507030756 | 60 | 248 | 1.7 | 3.5 | 0.00 | 0.24 | 0.24 | 92 | 1004.5 |
| 20260507030547 | 60 | 229 | 1.7 | 3.5 | 0.00 | 0.24 | 0.24 | 92 | 1004.5 |
| 20260507030347 | 60 | 242 | 1.7 | 3.5 | 0.00 | 0.24 | 0.24 | 92 | 1004.5 |
| 20260507030143 | 60 | 235 | 1.7 | 3.5 | 0.00 | 0.24 | 0.24 | 92 | 1004.4 |
| 20260507025934 | 60 | 235 | 1.7 | 3.5 | 0.00 | 0.24 | 0.24 | 92 | 1004.4 |
| 20260507025729 | 60 | 234 | 1.7 | 3.5 | 0.00 | 0.24 | 0.24 | 92 | 1004.4 |
| 20260507025520 | 60 | 229 | 1.7 | 3.5 | 0.00 | 0.24 | 0.24 | 92 | 1004.4 |
| 20260507025318 | 60 | 193 | 1.7 | 3.5 | 0.00 | 0.24 | 0.24 | 92 | 1004.5 |
| 20260507025108 | 60 | 224 | 1.7 | 3.5 | 0.00 | 0.24 | 0.24 | 92 | 1004.4 |
| 20260507024904 | 60 | 224 | 1.7 | 3.5 | 0.00 | 0.24 | 0.24 | 92 | 1004.4 |
| 20260507024702 | 60 | 211 | 1.7 | 2.6 | 0.00 | 0.24 | 0.24 | 92 | 1004.4 |
| 20260507024501 | 60 | 236 | 1.7 | 2.6 | 0.00 | 0.24 | 0.24 | 92 | 1004.4 |
| 20260507024302 | 60 | 220 | 1.7 | 5.2 | 0.00 | 0.24 | 0.24 | 92 | 1004.5 |
| 20260507024101 | 60 | 220 | 1.7 | 5.2 | 0.00 | 0.24 | 0.24 | 92 | 1004.4 |
| 20260507023857 | 60 | 223 | 1.7 | 5.2 | 0.00 | 0.24 | 0.24 | 92 | 1004.4 |
| 20260507023533 | 60 | 225 | 1.7 | 5.2 | 0.00 | 0.24 | 0.24 | 92 | 1004.3 |
| 20260507023213 | 60 | 207 | 1.7 | 5.2 | 0.00 | 0.24 | 0.24 | 92 | 1004.4 |
| 20260507023006 | 60 | 226 | 1.7 | 5.2 | 0.00 | 0.24 | 0.24 | 92 | 1004.5 |
| 20260507022807 | 60 | 225 | 1.7 | 5.2 | 0.00 | 0.24 | 0.24 | 92 | 1004.5 |
| 20260507022606 | 60 | 229 | 1.7 | 5.2 | 0.00 | 0.24 | 0.24 | 92 | 1004.4 |
| 20260507022407 | 60 | 240 | 0.9 | 4.3 | 0.00 | 0.24 | 0.24 | 92 | 1004.4 |
| 20260507022203 | 60 | 240 | 1.7 | 4.3 | 0.00 | 0.24 | 0.24 | 92 | 1004.4 |
| 20260507021955 | 60 | 232 | 1.7 | 4.3 | 0.00 | 0.24 | 0.24 | 92 | 1004.5 |
| 20260507021745 | 60 | 209 | 1.7 | 5.2 | 0.00 | 0.24 | 0.24 | 92 | 1004.4 |
| 20260507021543 | 60 | 231 | 1.7 | 5.2 | 0.00 | 0.24 | 0.24 | 92 | 1004.4 |
| 20260507021335 | 60 | 227 | 1.7 | 5.2 | 0.00 | 0.24 | 0.24 | 92 | 1004.4 |
| 20260507021130 | 60 | 214 | 1.7 | 5.2 | 0.00 | 0.24 | 0.24 | 92 | 1004.5 |
| 20260507020920 | 60 | 216 | 1.7 | 5.2 | 0.00 | 0.24 | 0.24 | 92 | 1004.5 |
| 20260507020710 | 60 | 220 | 2.6 | 7.0 | 0.00 | 0.24 | 0.24 | 92 | 1004.5 |
| 20260507020509 | 60 | 223 | 1.7 | 7.0 | 0.00 | 0.24 | 0.24 | 92 | 1004.5 |
| 20260507020259 | 60 | 225 | 1.7 | 7.0 | 0.00 | 0.24 | 0.24 | 92 | 1004.5 |
| 20260507020059 | 60 | 202 | 2.6 | 7.0 | 0.00 | 0.24 | 0.24 | 92 | 1004.6 |
| 20260507015853 | 60 | 205 | 2.6 | 7.0 | 0.00 | 0.24 | 0.24 | 92 | 1004.6 |
| 20260507015645 | 60 | 217 | 2.6 | 7.0 | 0.00 | 0.24 | 0.24 | 92 | 1004.6 |
| 20260507015438 | 60 | 229 | 2.6 | 7.0 | 0.00 | 0.24 | 0.24 | 92 | 1004.6 |
| 20260507015239 | 60 | 207 | 2.6 | 7.0 | 0.00 | 0.24 | 0.24 | 92 | 1004.7 |
| 20260507015038 | 60 | 227 | 2.6 | 7.0 | 0.00 | 0.24 | 0.24 | 92 | 1004.7 |
| 20260507014828 | 60 | 223 | 2.6 | 4.3 | 0.00 | 0.24 | 0.24 | 93 | 1004.7 |
| 20260507014510 | 60 | 238 | 1.7 | 4.3 | 0.00 | 0.24 | 0.24 | 93 | 1004.7 |
| 20260507014311 | 60 | 242 | 1.7 | 4.3 | 0.00 | 0.24 | 0.24 | 93 | 1004.8 |
| 20260507014103 | 60 | 210 | 1.7 | 4.3 | 0.00 | 0.24 | 0.24 | 93 | 1004.7 |
| 20260507013855 | 60 | 234 | 1.7 | 4.3 | 0.00 | 0.24 | 0.24 | 93 | 1004.8 |
| 20260507013648 | 60 | 219 | 1.7 | 4.3 | 0.00 | 0.24 | 0.24 | 93 | 1004.8 |
| 20260507013334 | 60 | 216 | 1.7 | 4.3 | 0.00 | 0.24 | 0.24 | 93 | 1004.8 |
| 20260507013127 | 60 | 221 | 1.7 | 4.3 | 0.00 | 0.24 | 0.24 | 93 | 1004.8 |
| 20260507012920 | 60 | 247 | 1.7 | 4.3 | 0.00 | 0.24 | 0.24 | 93 | 1004.7 |
| 20260507012712 | 60 | 226 | 1.7 | 4.3 | 0.00 | 0.24 | 0.24 | 93 | 1004.7 |
| 20260507012510 | 60 | 246 | 1.7 | 4.3 | 0.00 | 0.24 | 0.24 | 93 | 1004.7 |
| 20260507012310 | 60 | 221 | 1.7 | 6.1 | 0.00 | 0.24 | 0.24 | 93 | 1004.8 |
| 20260507012110 | 60 | 232 | 1.7 | 6.1 | 0.00 | 0.24 | 0.24 | 93 | 1004.8 |
| 20260507011911 | 60 | 229 | 1.7 | 6.1 | 0.00 | 0.24 | 0.24 | 93 | 1004.7 |
| 20260507011712 | 60 | 210 | 1.7 | 6.1 | 0.00 | 0.24 | 0.24 | 93 | 1004.7 |
| 20260507011348 | 60 | 210 | 2.6 | 8.7 | 0.00 | 0.24 | 0.24 | 93 | 1004.8 |
| 20260507011141 | 60 | 190 | 2.6 | 8.7 | 0.00 | 0.24 | 0.24 | 93 | 1004.8 |
| 20260507010933 | 60 | 234 | 1.7 | 8.7 | 0.00 | 0.24 | 0.24 | 93 | 1004.9 |
| 20260507010617 | 60 | 214 | 1.7 | 8.7 | 0.00 | 0.24 | 0.24 | 93 | 1004.8 |
| 20260507010413 | 60 | 222 | 2.6 | 8.7 | 0.00 | 0.24 | 0.24 | 93 | 1004.8 |
| 20260507010206 | 60 | 217 | 2.6 | 8.7 | 0.00 | 0.24 | 0.24 | 93 | 1004.9 |
| 20260507005957 | 60 | 219 | 2.6 | 8.7 | 0.00 | 0.24 | 0.24 | 93 | 1004.9 |
| 20260507005758 | 60 | 219 | 2.6 | 8.7 | 0.00 | 0.24 | 0.24 | 93 | 1004.9 |
| 20260507005551 | 60 | 217 | 1.7 | 8.7 | 0.00 | 0.24 | 0.24 | 93 | 1004.9 |
| 20260507005344 | 60 | 163 | 1.7 | 7.8 | 0.00 | 0.24 | 0.24 | 93 | 1004.9 |
| 20260507005136 | 60 | 214 | 1.7 | 6.1 | 0.00 | 0.24 | 0.24 | 93 | 1004.8 |
| 20260507004927 | 60 | 180 | 1.7 | 6.1 | 0.00 | 0.24 | 0.24 | 93 | 1004.8 |
| 20260507004612 | 60 | 246 | 1.7 | 6.1 | 0.00 | 0.24 | 0.24 | 93 | 1004.8 |
| 20260507004405 | 60 | 225 | 1.7 | 6.1 | 0.00 | 0.24 | 0.24 | 93 | 1004.8 |
| 20260507004200 | 60 | 221 | 1.7 | 6.1 | 0.00 | 0.24 | 0.24 | 93 | 1004.7 |
| 20260507003950 | 60 | 219 | 2.6 | 6.1 | 0.00 | 0.24 | 0.24 | 93 | 1004.8 |
| 20260507003746 | 60 | 233 | 1.7 | 6.1 | 0.00 | 0.24 | 0.24 | 93 | 1004.8 |
| 20260507003539 | 60 | 200 | 1.7 | 6.1 | 0.00 | 0.24 | 0.24 | 93 | 1004.8 |
| 20260507003218 | 60 | 235 | 1.7 | 5.2 | 0.00 | 0.24 | 0.24 | 93 | 1004.8 |
| 20260507003015 | 60 | 242 | 1.7 | 5.2 | 0.00 | 0.24 | 0.24 | 93 | 1004.7 |
| 20260507002816 | 60 | 250 | 1.7 | 7.8 | 0.00 | 0.24 | 0.24 | 93 | 1004.7 |
| 20260507002606 | 60 | 237 | 2.6 | 7.8 | 0.00 | 0.24 | 0.24 | 93 | 1004.7 |
| 20260507002249 | 60 | 174 | 2.6 | 7.8 | 0.00 | 0.24 | 0.24 | 93 | 1004.7 |
| 20260507002042 | 60 | 230 | 1.7 | 7.8 | 0.00 | 0.24 | 0.24 | 93 | 1004.7 |
| 20260507001836 | 60 | 235 | 1.7 | 7.8 | 0.00 | 0.24 | 0.24 | 93 | 1004.7 |
| 20260507001633 | 60 | 227 | 1.7 | 8.7 | 0.00 | 0.24 | 0.24 | 93 | 1004.8 |
| 20260507001429 | 60 | 223 | 1.7 | 8.7 | 0.00 | 0.24 | 0.24 | 93 | 1004.7 |
| 20260507001104 | 60 | 244 | 1.7 | 8.7 | 0.00 | 0.24 | 0.24 | 93 | 1004.6 |
| 20260507000857 | 60 | 248 | 1.7 | 8.7 | 0.00 | 0.24 | 0.24 | 93 | 1004.6 |
| 20260507000646 | 60 | 233 | 1.7 | 8.7 | 0.00 | 0.24 | 0.24 | 93 | 1004.6 |
| 20260507000446 | 60 | 233 | 2.6 | 8.7 | 0.00 | 0.24 | 0.24 | 93 | 1004.6 |
| 20260507000237 | 60 | 219 | 1.7 | 8.7 | 0.00 | 0.24 | 0.24 | 93 | 1004.5 |
| 20260507000026 | 60 | 216 | 1.7 | 8.7 | 0.04 | 0.24 | 0.24 | 93 | 1004.6 |
| 20260506235818 | 60 | 150 | 1.7 | 6.1 | 0.04 | 0.24 | 0.24 | 93 | 1004.5 |
| 20260506235612 | 60 | 250 | 1.7 | 6.1 | 0.05 | 0.24 | 0.24 | 93 | 1004.5 |
| 20260506235404 | 60 | 273 | 1.7 | 7.0 | 0.06 | 0.24 | 0.24 | 93 | 1004.4 |
| 20260506235049 | 60 | 240 | 1.7 | 7.0 | 0.06 | 0.24 | 0.24 | 93 | 1004.4 |
| 20260506234842 | 60 | 238 | 1.7 | 7.0 | 0.06 | 0.24 | 0.24 | 93 | 1004.4 |
| 20260506234642 | 60 | 178 | 1.7 | 7.0 | 0.06 | 0.24 | 0.24 | 93 | 1004.4 |
| 20260506234433 | 60 | 225 | 1.7 | 7.0 | 0.06 | 0.23 | 0.24 | 93 | 1004.5 |
| 20260506234227 | 60 | 222 | 1.7 | 7.0 | 0.08 | 0.23 | 0.23 | 93 | 1004.5 |
| 20260506234020 | 60 | 223 | 1.7 | 7.0 | 0.10 | 0.23 | 0.23 | 93 | 1004.5 |
| 20260506233815 | 60 | 250 | 1.7 | 7.0 | 0.13 | 0.23 | 0.23 | 93 | 1004.6 |
| 20260506233613 | 60 | 234 | 2.6 | 7.0 | 0.13 | 0.21 | 0.23 | 93 | 1004.5 |
| 20260506233258 | 60 | 233 | 2.6 | 7.0 | 0.04 | 0.21 | 0.21 | 93 | 1004.5 |
| 20260506233059 | 60 | 229 | 2.6 | 7.0 | 0.04 | 0.21 | 0.21 | 93 | 1004.5 |
| 20260506232850 | 60 | 242 | 2.6 | 8.7 | 0.05 | 0.21 | 0.21 | 93 | 1004.6 |
| 20260506232651 | 60 | 223 | 2.6 | 8.7 | 0.06 | 0.21 | 0.21 | 93 | 1004.5 |
| 20260506232446 | 60 | 223 | 2.6 | 8.7 | 0.06 | 0.21 | 0.21 | 92 | 1004.6 |
| 20260506232243 | 60 | 222 | 2.6 | 8.7 | 0.06 | 0.21 | 0.21 | 92 | 1004.6 |
| 20260506231926 | 60 | 240 | 2.6 | 10.4 | 0.06 | 0.21 | 0.21 | 92 | 1004.6 |
| 20260506231726 | 60 | 218 | 2.6 | 10.4 | 0.06 | 0.21 | 0.21 | 92 | 1004.7 |
| 20260506231526 | 60 | 177 | 2.6 | 10.4 | 0.00 | 0.19 | 0.20 | 92 | 1004.7 |
| 20260506231317 | 60 | 229 | 2.6 | 10.4 | 0.00 | 0.19 | 0.20 | 92 | 1004.8 |
| 20260506231114 | 60 | 224 | 2.6 | 10.4 | 0.00 | 0.19 | 0.20 | 92 | 1004.8 |
| 20260506230910 | 60 | 228 | 2.6 | 10.4 | 0.00 | 0.19 | 0.20 | 92 | 1004.8 |
| 20260506230710 | 60 | 167 | 2.6 | 10.4 | 0.00 | 0.19 | 0.19 | 92 | 1004.8 |
| 20260506230501 | 60 | 180 | 2.6 | 10.4 | 0.00 | 0.19 | 0.19 | 92 | 1004.7 |
| 20260506230258 | 60 | 225 | 2.6 | 10.4 | 0.00 | 0.19 | 0.19 | 92 | 1004.7 |
| 20260506230057 | 60 | 206 | 2.6 | 9.6 | 0.00 | 0.19 | 0.19 | 92 | 1004.7 |
| 20260506225741 | 60 | 238 | 2.6 | 9.6 | 0.00 | 0.19 | 0.19 | 92 | 1004.7 |
| 20260506225540 | 60 | 242 | 2.6 | 9.6 | 0.00 | 0.19 | 0.19 | 92 | 1004.7 |
| 20260506225335 | 60 | 228 | 2.6 | 9.6 | 0.00 | 0.19 | 0.19 | 92 | 1004.7 |
| 20260506225133 | 60 | 200 | 3.5 | 9.6 | 0.00 | 0.19 | 0.19 | 92 | 1004.7 |
| 20260506224928 | 60 | 225 | 2.6 | 9.6 | 0.04 | 0.18 | 0.18 | 92 | 1004.8 |
| 20260506224602 | 60 | 219 | 2.6 | 9.6 | 0.04 | 0.18 | 0.18 | 92 | 1004.8 |
| 20260506224356 | 60 | 229 | 2.6 | 9.6 | 0.04 | 0.18 | 0.18 | 92 | 1004.8 |
| 20260506224146 | 60 | 223 | 1.7 | 6.1 | 0.04 | 0.18 | 0.18 | 92 | 1004.8 |